sat.trackr.live / text

‹ back to catalog

STARLINK-37743

NORAD 69339 · 2026-122L

PAYLOAD ACTIVE UNKNOWN

§ Identity

Operator
Country
US
Launch date
2026-06-03
Launch site
AFWTR
Launch vehicle
Mass (kg)
RCS (m²)

Purposes: comms

External: N2YO · Heavens-Above · Gunter

§ Orbital elements

Epoch: 2026-09-20T00:17:41.049888Z

Period
93.91 min
Inclination
97.2836°
Eccentricity
0.0001029
Mean motion
15.33453875 rev/d
Perigee alt
464.8 km
Apogee alt
466.2 km
Semi-major
6,843.7 km
B*
3.7077e-4
RAAN
291.6243°
Arg perigee
91.8559°
Mean anomaly
268.2802°
Rev number
1,672

§ Raw data

STARLINK-377431 69339U 26122L   26263.01228067  .00011917  00000+0  37077-3 0  99932 69339  97.2836 291.6243 0001029  91.8559 268.2802 15.33453875 16721

JSON: /api/v1/satellites/69339 · /tle

For live sub-satellite position, see the globe view (requires WebGL).

§ Visibility from observer

Set your observer location to see the next 7 days of passes ≥ 10°. The values pass through the URL so the page stays shareable.

No JS? Fill the form by hand. The geolocation button needs JavaScript.